Preview of NWS' New Version of Forecast
This preview is not operational and should not be used for support decisions.

Regional Weather Roundup (RWR)

Issued by National Weather Service (NWS)

                            
000
ASUS43 KDTX 261010
RWRMI 
MICHIGAN HOURLY REGIONAL WEATHER ROUNDUP
NATIONAL WEATHER SERVICE DETROIT/PONTIAC MI
600 AM EDT SUN MAY 26 2019

NOTE: "FAIR" INDICATES FEW OR NO CLOUDS BELOW 12,000 FEET WITH NO
SIGNIFICANT WEATHER AND/OR OBSTRUCTION TO VISIBILITY.

MIZ047>049-052>055-059>063-066>070-074>076-081>083-261100-
SOUTHEAST LOWER MICHIGAN
  
CITY           SKY/WX    TMP DP  RH WIND       PRES   REMARKS
ADRIAN         FAIR      66  63  90 W6        29.98R                  
ALMA           FAIR      60  51  72 N3        29.99R                  
ANN ARBOR      FAIR      60  60 100 W5        29.96R FOG              
BAD AXE        CLOUDY    56  50  79 CALM      29.96S                  
CARO           MOCLDY    59  49  69 CALM      29.97R                  
DETROIT CITY   FAIR      66  62  87 W3        29.94R                  
DETROIT        CLOUDY    66  63  90 SW6       29.96R                  
FLINT          FAIR      63  59  87 W5        29.96R                  
GROSSE ILE     FAIR      65  65  97 W3        29.95R                  
HILLSDALE      FAIR      66  62  87 W6        30.00R                  
HOWELL         FAIR      64  60  85 W6        29.97R                  

CITY           SKY/WX    TMP DP  RH WIND       PRES   REMARKS
JACKSON        FAIR      64  63  96 CALM      29.98R                  
LAMBERTVILLE   FAIR      69  66  92 W3        29.96R                  
LANSING        FAIR      63  60  90 NW3       29.98R                  
LAPEER         CLOUDY    61  54  77 CALM      29.98R                  
MASON          FAIR      65  62  90 W5        29.98R                  
MONROE         FAIR      68  67  98 W5        29.94S                  
MT. CLEMENS    FAIR      64  64 100 CALM      29.93R                  
PONTIAC        MOCLDY    65  62  90 NW7       29.94R                  
PORT HOPE        N/A     54  52  93 CALM      29.95R                  
TRI CITIES     MOCLDY    60  53  77 NE6       29.99R                  
MIDLAND        FAIR      57  52  82 CALM      29.98R                  
TROY           FAIR      65  61  87 W3        29.95S                  
SAGINAW HB     CLOUDY    61  54  77 NE6       29.98R                  
$$
MIZ043>046-050>051-056>058-064>065-071>073-077>080-261100-
SOUTHWEST LOWER MICHIGAN
  
CITY           SKY/WX    TMP DP  RH WIND       PRES   REMARKS
BATTLE CREEK   CLOUDY    64  61  90 CALM      29.98R                  
BENTON HARBOR  MOCLDY    65  61  87 W15       29.99R                  
BIG RAPIDS     FAIR      53  49  87 CALM      29.99R                  
COLDWATER      CLOUDY    66  65  96 CALM      29.98S                  
FREMONT        MOCLDY    57  50  77 CALM      29.99R                  
HOLLAND        CLOUDY    60  56  86 CALM      29.97R                  
GRAND RAPIDS   MOCLDY    61  57  87 N6        29.98R                  
IONIA          MOCLDY    62  56  81 N5        29.98R                  
KALAMAZOO      CLOUDY    64  61  90 S3        29.98R                  
LUDINGTON      FAIR      50  49  96 CALM      29.99R                  
MARSHALL       CLOUDY    64  64 100 CALM      29.98R                  
MOUNT PLEASANT MOCLDY    57  49  75 CALM      29.98R                  
MUSKEGON       MOCLDY    60  52  74 NE7       29.97R                  
SOUTH HAVEN    FAIR      61  58  90 CALM      29.97S                  
$$
MIZ016>042-261100-
NORTHERN LOWER MICHIGAN
  
CITY           SKY/WX    TMP DP  RH WIND       PRES   REMARKS
ALPENA         FAIR      51  47  86 W5        29.96R                  
BEAVER ISLAND  FAIR      44  41  88 W6        30.00R                  
BELLAIRE       FAIR      46  45  95 CALM      29.98S FOG              
CADILLAC       FAIR      49  47  94 CALM      29.98R                  
CHARLEVOIX     FAIR      50  45  81 CALM      30.01S                  
FRANKFORT      FAIR      50  47  87 CALM      29.99R                  
GAYLORD        FAIR      48  46  93 NW3       29.97S                  
GRAYLING       FAIR      44  44 100 CALM      29.97R                  
HARBOR SPRINGS FAIR      45  44  97 NW3       29.99R                  
HOUGHTON LAKE  FAIR      47  45  93 CALM      29.99R                  
MANISTEE       FAIR      47  47 100 CALM      29.99R                  
OSCODA         FAIR      49  46  87 W3        29.96R                  
PELLSTON       FAIR      43  42  97 CALM      29.99R                  
ROGERS CITY    FAIR      51  46  82 W6        29.97R                  
TRAVERSE CITY  FAIR      50  48  93 CALM      29.97R                  
$$
MIZ007>008-015-261100-
EASTERN UPPER MICHIGAN
  
CITY           SKY/WX    TMP DP  RH WIND       PRES   REMARKS
KINROSS        FAIR      44  42  93 W5        29.96R                  
MACKINAC ISLAN FAIR      46  45  96 W7        29.98R                  
NEWBERRY       FAIR      47  45  91 NW5       29.98R                  
S. S. MARIE    FAIR      45  41  86 NW10      29.94R                  
MUNISING         N/A     43  40  89 S6        30.00R                  
$$
MIZ004>006-011>014-085-261100-
CENTRAL UPPER MICHIGAN
  
CITY           SKY/WX    TMP DP  RH WIND       PRES   REMARKS
MANISTIQUE     FAIR      44  41  89 NW5       29.99R                  
ESCANABA       CLOUDY    51  48  89 W5        30.03R                  
MENOMINEE      FAIR      53  48  83 NW3       30.02R                  
SAWYER-GWINN   FAIR      44  41  89 CALM      30.00R                  
$$
MIZ001>003-009>011-084-261100-
WESTERN UPPER MICHIGAN
  
CITY           SKY/WX    TMP DP  RH WIND       PRES   REMARKS
IRON MOUNTAIN  FAIR      48  43  82 CALM      30.02R                  
HOUGHTON       FAIR      47  42  83 NW7       29.99R                  
COPPER HARBOR    N/A     54  46  74 NW6       29.97R                  
IRONWOOD       FAIR      41  40  96 CALM      30.05R                  
$$

ABBREVIATIONS USED IN REMARKS
   TC - TEMPERATURE IN CELSIUS
  WCI - WIND CHILL INDEX
   HX - HEAT INDEX
  VSB - VISIBILITY